Regional Weather Roundup
Issued by NWS

Home | Current Version | Previous Version | Text Only | Print | Product List | Glossary Off
Versions: 1 2 3 4 5 6 7 8 9 10 11 12 13 14 15 16 17 18 19 20 21 22 23 24 25 26 27 28 29 30 31 32 33 34 35 36 37 38 39 40 41 42 43 44 45 46 47 48 49 50

000
ASUS43 KLSX 212057
RWRMO

WEATHER SUMMARY FOR MISSOURI
NATIONAL WEATHER SERVICE SPRINGFIELD MO
300 PM CST WED FEB 21 2018

NOTE: "FAIR" INDICATES FEW OR NO CLOUDS BELOW 12,000 FEET WITH NO
       SIGNIFICANT WEATHER AND/OR OBSTRUCTIONS TO VISIBILITY.
       CURRENT SKY AND/OR WEATHER CONDITIONS ARE NOT AVAILABLE FOR
       CHILLICOTHE AND FARMINGTON.

MOZ001>031-035>038-043-044-053-054-212200-
...NORTHERN AND WESTERN MISSOURI...

CITY           SKY/WX    TMP DP  RH WIND       PRES   REMARKS
KANSAS CTY INT CLOUDY    26  21  81 NE14      30.50S WCI  14
LEE`S SUMMIT   PTSUNNY   27  22  81 NE12      30.50S WCI  17
ST JOSEPH      FAIR      27  21  78 N13       30.55S WCI  16
CHILLICOTHE      N/A     27  21  78 NE12      30.56S WCI  17

$$
MOZ066>068-077>081-088>096-101>105-212200-
...SOUTHWEST MISSOURI...

CITY           SKY/WX    TMP DP  RH WIND       PRES   REMARKS
SPRINGFIELD    CLOUDY    28  25  88 NE13      30.38F WCI  17
JOPLIN         CLOUDY    28  25  88 NE10G23   30.39F WCI  19
BRANSON        CLOUDY    28  28 100 N9        30.35F FOG     WCI  20

$$
MOZ032>034-039>042-045>050-055>058-069>072-212200-
...CENTRAL MISSOURI...

CITY           SKY/WX    TMP DP  RH WIND       PRES   REMARKS
COLUMBIA       NOT AVBL
JEFFERSON CITY PTSUNNY   29  23  78 NE7       30.50S WCI  22
ROLLA          CLOUDY    26  24  92 NE10      30.45R WCI  16
SEDALIA        FAIR      30  25  81 NE15      30.51R WCI  19
WARRENSBURG    FAIR      28  23  80 N8        30.50F WCI  20

$$
MOZ051-052-059>065-212200-
...EAST CENTRAL MISSOURI...

CITY           SKY/WX    TMP DP  RH WIND       PRES   REMARKS
ST LOUIS INTL  CLOUDY    30  26  85 N13       30.49F WCI  20

$$
MOZ072>076-082>087-097>100-106>115-212200-
...SOUTH CENTRAL AND SOUTHEAST MISSOURI...

CITY           SKY/WX    TMP DP  RH WIND       PRES   REMARKS
CAPE GIRARDEAU LGT RAIN  34  32  92 N13       30.46S FOG     WCI  25
POPLAR BLUFF   LGT RAIN  35  33  92 NE9       30.44F FOG     WCI  28
WEST PLAINS    CLOUDY    32  30  92 N10       30.36S WCI  24

$$


USA.gov is the U.S. government's official web portal to all federal, state and local government web resources and services.